Regional Weather Roundup
Issued by NWS

Home | Current Version | Previous Version | Text Only | Print | Product List | Glossary On
Versions: 1 2 3 4 5 6 7 8 9 10 11 12 13 14 15 16 17 18 19 20 21 22 23 24 25 26 27 28 29 30 31 32 33 34 35 36 37 38 39 40 41 42 43 44 45 46 47 48 49 50
000
ASUS45 KSLC 311010
RWRUT

UTAH REGIONAL WEATHER ROUNDUP
NATIONAL WEATHER SERVICE SALT LAKE CITY UT
400 AM MDT THU JUL 31 2014

UTZ001>011-023>025-311100-

NORTHERN UTAH

CITY           SKY/WX    TMP DP  RH WIND       PRES   REMARKS
HILL AFB       CLEAR     63  52  67 E15G25    30.20
LOGAN          CLEAR     60  51  72 CALM      30.23F
OGDEN          CLEAR     63  51  65 W3        30.18F
PROVO AIRPORT  PTCLDY    64  54  68 N8        30.20F
SALT LAKE CITY PTCLDY    65  55  70 N8        30.16F
VERNAL         CLEAR     56  49  77 W3        30.26S
WENDOVER       MOCLDY    72  54  53 N6        30.19S
HEBER CITY     PTCLDY    55  52  88 CALM      30.29S
WEST JORDAN    CLEAR     64  57  77 NW3       30.20F

$$

UTZ012>022-026-027-311100-

SOUTHERN UTAH

CITY           SKY/WX    TMP DP  RH WIND       PRES   REMARKS
BRYCE CANYON   CLEAR     52  47  83 CALM      30.38S
CEDAR CITY     PTCLDY    60  51  72 VRB5      30.23F
MILFORD        PTCLDY    66  50  56 N5        30.18F
MOAB/CYNLANDS  CLEAR     68  57  68 N3        30.15R
PRICE          CLEAR     62  50  64 NW5       30.25F
ST GEORGE      SUNNY     84  46  26 NE5       30.01F
KANAB            N/A     63  52  67 E6        30.19F

$$

REGIONAL REPORTS     COLORADO/ARIZONA

CITY           SKY/WX    TMP DP  RH WIND       PRES   REMARKS
CRAIG, CO      CLOUDY    52  52 100 N3        30.30F
GRAND JUNCTION CLEAR     62  57  83 CALM      30.18S
RIFLE          CLEAR     58  55  90 SE3       30.24S
MONTROSE       CLEAR     61  53  75 SE6       30.26S
CORTEZ         CLEAR     56  50  80 E3        30.22S
PAGE, AZ       CLEAR     81  49  32 NW6       30.10S
GRAND CANYON   CLEAR     54  47  77 NE3       30.29F
KINGMAN        PTCLDY    77  49  37 SE10      30.03S
FLAGSTAFF      PTCLDY    59  47  64 CALM      30.31F

$$

REGIONAL REPORTS    NEVADA/IDAHO/WYOMING

CITY           SKY/WX    TMP DP  RH WIND       PRES   REMARKS
LAS VEGAS, NV  MOCLDY    87  54  32 SW5       29.91S
ELY            CLOUDY    63  50  62 N5        30.31S
ELKO           CLOUDY    64  48  56 S5        30.23R
POCATELLO, ID  CLEAR     59  48  67 CALM      30.23S
BURLEY         CLEAR     60  52  74 E3        30.18S
EVANSTON, WY   CLEAR     51  48  89 N6        30.38S
ROCK SPRINGS   CLEAR     49  42  77 S6        30.36F

$$


USA.gov is the U.S. government's official web portal to all federal, state and local government web resources and services.